Current weather by "City, St" or "zip code"  
 

Current Conditions: Gillette, Gillette-Campbell County Airport, WY

Fair


6.0 F

Last Updated on Jan 19 2022, 9:53 pm MST
Humidity: 80%
Wind Speed: SE 3.5 mph
Barometer 30.31 in
Dewpoint: 1.0 F
Visibility: 10.00 mi
Precip: --
Heat Index: NA
Wind Chill: NA
Current conditions at:

Gillette, Gillette-Campbell County Airport, WY (KGCC)

Lat: 44.33944 Lon: 105.54194

Local Radar Image active severe weather and emergency alerts image image weather storm and storm spotter reports image weather observation monitoring service image
Local
Radar
Active
Alerts
Storm Reports Obs
Monitoring

Sign-up For Email & Text Message Weather Alert Notification Services



Advertise Here

Observation History for Gillette, Gillette-Campbell County Airport, WY


Time Wind
(mph)
Vis
(mi)
Weather Precip (in) Temperature (F) Relative
Humidity
Wind
Chill
(F)
Heat
Index
(F)
Pressure
Air Dwpt altimeter
(in)
sea level
(mb)
Rmks
9:53 pm MST SE 3.5 10.00 Fair -- 6.0 1.0 80% NA NA 30.31 1034.6
8:53 pm MST S 8.1 10.00 Fair -- 3.0 -2.0 79% -11 NA 30.33 1036.0
7:53 pm MST S 5.8 10.00 Fair -- 4.0 0.0 83% -7 NA 30.34 1036.1
6:53 pm MST 5.8 10.00 Fair -- 4.0 -0.9 80% -7 NA 30.34 1036.3
5:53 pm MST SW 3.5 10.00 Mostly Cloudy -- 5.0 0.0 79% NA NA 30.34 1035.8
4:53 pm MST N 0.0 10.00 Fair -- 10.0 1.9 69% NA NA 30.33 1034.9
3:53 pm MST N 0.0 10.00 Fair -- 13.0 3.0 64% NA NA 30.32 1034.3
2:53 pm MST N 0.0 10.00 Mostly Cloudy -- 12.0 3.0 67% NA NA 30.32 1034.4
1:53 pm MST SE 3.5 10.00 Overcast -- 12.0 3.0 67% NA NA 30.33 1034.5
12:53 pm MST N 0.0 10.00 Overcast -- 10.0 1.9 69% NA NA 30.35 1035.3
11:53 am MST N 0.0 7.00 Overcast -- 8.0 1.0 73% NA NA 30.36 1035.8
10:53 am MST N 0.0 4.00 Overcast with Haze -- 6.0 0.0 76% NA NA 30.38 1036.5
9:48 am MST N 6.9 2.50 Overcast with Haze Trace 6.0 1.0 80% -6 NA 30.37 1036.4
8:53 am MST N 8.1 3.00 Fog/Mist -- 5.0 1.0 83% -8 NA 30.36 1036.0
7:53 am MST NW 9.2 10.00 Overcast -- 5.0 0.0 79% -9 NA 30.34 1035.2
6:53 am MST NW 9.2 10.00 Overcast -- 6.0 1.0 80% -8 NA 30.31 1034.1
5:53 am MST NW 12.7 10.00 Overcast -- 7.0 1.0 76% -9 NA 30.29 1032.9
4:53 am MST N 9.2 6.00 Overcast with Haze Trace 7.0 1.9 80% -7 NA 30.28 1032.1
3:53 am MST N 8.1 9.00 Overcast -- 7.0 3.0 84% -6 NA 30.27 1031.4
2:53 am MST N 9.2 4.00 Fog/Mist -- 7.0 3.0 84% -7 NA 30.25 1030.7
1:53 am MST N 12.7 2.50 Overcast with Haze Trace 8.0 3.0 80% -8 NA 30.22 1029.2
12:53 am MST N 10.4 2.50 Light Snow Trace 9.0 3.9 80% -5 NA 30.21 1028.2
11:53 pm MST N 12.7 2.50 Light Snow Trace 11.0 6.1 81% -4 NA 30.19 1026.8
10:53 pm MST N 11.5 6.00 Overcast with Haze Trace 11.0 6.1 81% -3 NA 30.17 1025.9

Regional Weather Observation


Buffalo - Johnson County Airport, WY (KBYG)

Fair
4.0 F

Sheridan County Airport, WY (KSHR)

Fair
1.0 F

Hulett Municipal Airport, WY (KW43)

Fair
1.0 F

Mondell Field, WY (KECS)

Partly Cloudy
12.0 F

Spearfish / Clyde Ice, SD (KSPF)

Fair
0.0 F

Worland, Worland Municipal Airport, WY (KWRL)

Overcast
11.0 F

Advertise Here


Advertise Here